Year,Month,Day,Hour,Minute,Value (Times are PST for temperature in C)
2008,07,20,00,00,12.90
2008,07,20,00,01,12.80
2008,07,20,00,02,12.80
2008,07,20,00,03,12.80
2008,07,20,00,04,12.80
2008,07,20,00,05,12.80
2008,07,20,00,06,12.80
2008,07,20,00,07,12.80
2008,07,20,00,08,12.80
2008,07,20,00,09,12.80
2008,07,20,00,10,12.80
2008,07,20,00,11,12.80
2008,07,20,00,12,12.80
2008,07,20,00,13,12.80
2008,07,20,00,14,12.80
2008,07,20,00,15,12.80
2008,07,20,00,16,12.80
2008,07,20,00,17,12.80
2008,07,20,00,18,12.80
2008,07,20,00,19,12.80
2008,07,20,00,20,12.80
2008,07,20,00,21,12.80
2008,07,20,00,22,12.80
2008,07,20,00,23,12.80
2008,07,20,00,24,12.80
2008,07,20,00,25,12.70
2008,07,20,00,26,12.70
2008,07,20,00,27,12.70
2008,07,20,00,28,12.70
2008,07,20,00,29,12.70
2008,07,20,00,30,12.70
2008,07,20,00,31,12.70
2008,07,20,00,32,12.70
2008,07,20,00,33,12.70
2008,07,20,00,34,12.70
2008,07,20,00,35,12.70
2008,07,20,00,36,12.70
2008,07,20,00,37,12.70
2008,07,20,00,38,12.70
2008,07,20,00,39,12.70
2008,07,20,00,40,12.70
2008,07,20,00,41,12.70
2008,07,20,00,42,12.70
2008,07,20,00,43,12.70
2008,07,20,00,44,12.70
2008,07,20,00,45,12.70
2008,07,20,00,46,12.70
2008,07,20,00,47,12.70
2008,07,20,00,48,12.70
2008,07,20,00,49,12.70
2008,07,20,00,50,12.70
2008,07,20,00,51,12.70
2008,07,20,00,52,12.70
2008,07,20,00,53,12.70
2008,07,20,00,54,12.70
2008,07,20,00,55,12.70
2008,07,20,00,56,12.70
2008,07,20,00,57,12.70
2008,07,20,00,58,12.60
2008,07,20,00,59,12.60
2008,07,20,01,00,12.60
2008,07,20,01,01,12.60
2008,07,20,01,02,12.60
2008,07,20,01,03,12.60
2008,07,20,01,04,12.60
2008,07,20,01,05,12.60
2008,07,20,01,06,12.60
2008,07,20,01,07,12.60
2008,07,20,01,08,12.50
2008,07,20,01,09,12.50
2008,07,20,01,10,12.50
2008,07,20,01,11,12.50
2008,07,20,01,12,12.50
2008,07,20,01,13,12.40
2008,07,20,01,14,12.40
2008,07,20,01,15,12.40
2008,07,20,01,16,12.40
2008,07,20,01,17,12.40
2008,07,20,01,18,12.40
2008,07,20,01,19,12.40
2008,07,20,01,20,12.30
2008,07,20,01,21,12.30
2008,07,20,01,22,12.30
2008,07,20,01,23,12.30
2008,07,20,01,24,12.30
2008,07,20,01,25,12.30
2008,07,20,01,26,12.30
2008,07,20,01,27,12.30
2008,07,20,01,28,12.30
2008,07,20,01,29,12.30
2008,07,20,01,30,12.30
2008,07,20,01,31,12.20
2008,07,20,01,32,12.20
2008,07,20,01,33,12.20
2008,07,20,01,34,12.20
2008,07,20,01,35,12.10
2008,07,20,01,36,12.10
2008,07,20,01,37,12.10
2008,07,20,01,38,12.10
2008,07,20,01,39,12.10
2008,07,20,01,40,12.10
2008,07,20,01,41,12.10
2008,07,20,01,42,12.00
2008,07,20,01,43,12.00
2008,07,20,01,44,12.00
2008,07,20,01,45,12.00
2008,07,20,01,46,12.00
2008,07,20,01,47,12.00
2008,07,20,01,48,12.00
2008,07,20,01,49,12.00
2008,07,20,01,50,12.00
2008,07,20,01,51,12.00
2008,07,20,01,52,12.00
2008,07,20,01,53,12.10
2008,07,20,01,54,12.10
2008,07,20,01,55,12.10
2008,07,20,01,56,12.10
2008,07,20,01,57,12.10
2008,07,20,01,58,12.10
2008,07,20,01,59,12.10
2008,07,20,02,00,12.10
2008,07,20,02,01,12.10
2008,07,20,02,02,12.10
2008,07,20,02,03,12.10
2008,07,20,02,04,12.10
2008,07,20,02,05,12.10
2008,07,20,02,06,12.10
2008,07,20,02,07,12.10
2008,07,20,02,08,12.10
2008,07,20,02,09,12.10
2008,07,20,02,10,12.10
2008,07,20,02,11,12.10
2008,07,20,02,12,12.00
2008,07,20,02,13,12.00
2008,07,20,02,14,12.00
2008,07,20,02,15,12.00
2008,07,20,02,16,11.90
2008,07,20,02,17,11.90
2008,07,20,02,18,11.90
2008,07,20,02,19,11.90
2008,07,20,02,20,11.80
2008,07,20,02,21,11.80
2008,07,20,02,22,11.80
2008,07,20,02,23,11.80
2008,07,20,02,24,11.80
2008,07,20,02,25,11.80
2008,07,20,02,26,11.80
2008,07,20,02,27,11.80
2008,07,20,02,28,11.80
2008,07,20,02,29,11.70
2008,07,20,02,30,11.70
2008,07,20,02,31,11.70
2008,07,20,02,32,11.70
2008,07,20,02,33,11.70
2008,07,20,02,34,11.70
2008,07,20,02,35,11.60
2008,07,20,02,36,11.60
2008,07,20,02,37,11.60
2008,07,20,02,38,11.60
2008,07,20,02,39,11.60
2008,07,20,02,40,11.60
2008,07,20,02,41,11.60
2008,07,20,02,42,11.60
2008,07,20,02,43,11.60
2008,07,20,02,44,11.60
2008,07,20,02,45,11.50
2008,07,20,02,46,11.40
2008,07,20,02,47,11.40
2008,07,20,02,48,11.40
2008,07,20,02,49,11.40
2008,07,20,02,50,11.40
2008,07,20,02,51,11.40
2008,07,20,02,52,11.40
2008,07,20,02,53,11.40
2008,07,20,02,54,11.40
2008,07,20,02,55,11.40
2008,07,20,02,56,11.40
2008,07,20,02,57,11.40
2008,07,20,02,58,11.30
2008,07,20,02,59,11.30
2008,07,20,03,00,11.30
2008,07,20,03,01,11.30
2008,07,20,03,02,11.30
2008,07,20,03,03,11.20
2008,07,20,03,04,11.20
2008,07,20,03,05,11.10
2008,07,20,03,06,11.10
2008,07,20,03,07,10.90
2008,07,20,03,08,10.90
2008,07,20,03,09,10.90
2008,07,20,03,10,10.80
2008,07,20,03,11,10.70
2008,07,20,03,12,10.70
2008,07,20,03,13,10.60
2008,07,20,03,14,10.60
2008,07,20,03,15,10.60
2008,07,20,03,16,10.60
2008,07,20,03,17,10.60
2008,07,20,03,18,10.60
2008,07,20,03,19,10.50
2008,07,20,03,20,10.40
2008,07,20,03,21,10.40
2008,07,20,03,22,10.40
2008,07,20,03,23,10.40
2008,07,20,03,24,10.40
2008,07,20,03,25,10.40
2008,07,20,03,26,10.40
2008,07,20,03,27,10.40
2008,07,20,03,28,10.40
2008,07,20,03,29,10.40
2008,07,20,03,30,10.40
2008,07,20,03,31,10.40
2008,07,20,03,32,10.40
2008,07,20,03,33,10.30
2008,07,20,03,34,10.30
2008,07,20,03,35,10.30
2008,07,20,03,36,10.30
2008,07,20,03,37,10.30
2008,07,20,03,38,10.30
2008,07,20,03,39,10.30
2008,07,20,03,40,10.30
2008,07,20,03,41,10.30
2008,07,20,03,42,10.30
2008,07,20,03,43,10.30
2008,07,20,03,44,10.20
2008,07,20,03,45,10.20
2008,07,20,03,46,10.20
2008,07,20,03,47,10.20
2008,07,20,03,48,10.20
2008,07,20,03,49,10.20
2008,07,20,03,50,10.20
2008,07,20,03,51,10.20
2008,07,20,03,52,10.20
2008,07,20,03,53,10.20
2008,07,20,03,54,10.20
2008,07,20,03,55,10.20
2008,07,20,03,56,10.20
2008,07,20,03,57,10.20
2008,07,20,03,58,10.20
2008,07,20,03,59,10.20
2008,07,20,04,00,10.20
2008,07,20,04,01,10.20
2008,07,20,04,02,10.20
2008,07,20,04,03,10.20
2008,07,20,04,04,10.20
2008,07,20,04,05,10.20
2008,07,20,04,06,10.20
2008,07,20,04,07,10.20
2008,07,20,04,08,10.20
2008,07,20,04,09,10.20
2008,07,20,04,10,10.10
2008,07,20,04,11,10.10
2008,07,20,04,12,10.10
2008,07,20,04,13,10.10
2008,07,20,04,14,10.10
2008,07,20,04,15,10.10
2008,07,20,04,16,10.10
2008,07,20,04,17,10.10
2008,07,20,04,18,10.10
2008,07,20,04,19,10.10
2008,07,20,04,20,10.10
2008,07,20,04,21,10.10
2008,07,20,04,22,10.00
2008,07,20,04,23,9.90
2008,07,20,04,24,9.90
2008,07,20,04,25,9.90
2008,07,20,04,26,9.90
2008,07,20,04,27,9.90
2008,07,20,04,28,9.90
2008,07,20,04,29,9.90
2008,07,20,04,30,9.90
2008,07,20,04,31,9.90
2008,07,20,04,32,9.90
2008,07,20,04,33,9.90
2008,07,20,04,34,9.90
2008,07,20,04,35,9.90
2008,07,20,04,36,9.90
2008,07,20,04,37,9.90
2008,07,20,04,38,9.90
2008,07,20,04,39,9.90
2008,07,20,04,40,9.90
2008,07,20,04,41,9.90
2008,07,20,04,42,9.90
2008,07,20,04,43,9.90
2008,07,20,04,44,9.90
2008,07,20,04,45,9.90
2008,07,20,04,46,9.90
2008,07,20,04,47,9.90
2008,07,20,04,48,9.90
2008,07,20,04,49,9.90
2008,07,20,04,50,9.90
2008,07,20,04,51,9.90
2008,07,20,04,52,9.90
2008,07,20,04,53,9.90
2008,07,20,04,54,9.90
2008,07,20,04,55,9.90
2008,07,20,04,56,9.90
2008,07,20,04,57,9.90
2008,07,20,04,58,9.90
2008,07,20,04,59,9.90
2008,07,20,05,00,9.90
2008,07,20,05,01,9.90
2008,07,20,05,02,9.90
2008,07,20,05,03,9.80
2008,07,20,05,04,9.80
2008,07,20,05,05,9.80
2008,07,20,05,06,9.80
2008,07,20,05,07,9.80
2008,07,20,05,08,9.80
2008,07,20,05,09,9.70
2008,07,20,05,10,9.70
2008,07,20,05,11,9.70
2008,07,20,05,12,9.80
2008,07,20,05,13,9.80
2008,07,20,05,14,9.80
2008,07,20,05,15,9.90
2008,07,20,05,16,9.90
2008,07,20,05,17,9.90
2008,07,20,05,18,9.90
2008,07,20,05,19,9.90
2008,07,20,05,20,9.90
2008,07,20,05,21,9.90
2008,07,20,05,22,9.90
2008,07,20,05,23,9.90
2008,07,20,05,24,9.90
2008,07,20,05,25,9.90
2008,07,20,05,26,9.90
2008,07,20,05,27,9.90
2008,07,20,05,28,9.90
2008,07,20,05,29,9.90
2008,07,20,05,30,9.80
2008,07,20,05,31,9.80
2008,07,20,05,32,9.80
2008,07,20,05,33,9.80
2008,07,20,05,34,9.70
2008,07,20,05,35,9.70
2008,07,20,05,36,9.70
2008,07,20,05,37,9.70
2008,07,20,05,38,9.70
2008,07,20,05,39,9.60
2008,07,20,05,40,9.60
2008,07,20,05,41,9.50
2008,07,20,05,42,9.50
2008,07,20,05,43,9.50
2008,07,20,05,44,9.40
2008,07,20,05,45,9.40
2008,07,20,05,46,9.40
2008,07,20,05,47,9.30
2008,07,20,05,48,9.30
2008,07,20,05,49,9.30
2008,07,20,05,50,9.30
2008,07,20,05,51,9.20
2008,07,20,05,52,9.20
2008,07,20,05,53,9.20
2008,07,20,05,54,9.20
2008,07,20,05,55,9.20
2008,07,20,05,56,9.20
2008,07,20,05,57,9.20
2008,07,20,05,58,9.20
2008,07,20,05,59,9.20
2008,07,20,06,00,9.20
2008,07,20,06,01,9.20
2008,07,20,06,02,9.20
2008,07,20,06,03,9.20
2008,07,20,06,04,9.20
2008,07,20,06,05,9.20
2008,07,20,06,06,9.20
2008,07,20,06,07,9.20
2008,07,20,06,08,9.20
2008,07,20,06,09,9.20
2008,07,20,06,10,9.20
2008,07,20,06,11,9.20
2008,07,20,06,12,9.20
2008,07,20,06,13,9.20
2008,07,20,06,14,9.20
2008,07,20,06,15,9.20
2008,07,20,06,16,9.30
2008,07,20,06,17,9.30
2008,07,20,06,18,9.30
2008,07,20,06,19,9.40
2008,07,20,06,20,9.40
2008,07,20,06,21,9.40
2008,07,20,06,22,9.50
2008,07,20,06,23,9.50
2008,07,20,06,24,9.60
2008,07,20,06,25,9.60
2008,07,20,06,26,9.60
2008,07,20,06,27,9.70
2008,07,20,06,28,9.70
2008,07,20,06,29,9.70
2008,07,20,06,30,9.70
2008,07,20,06,31,9.80
2008,07,20,06,32,9.80
2008,07,20,06,33,9.80
2008,07,20,06,34,9.80
2008,07,20,06,35,9.90
2008,07,20,06,36,9.90
2008,07,20,06,37,9.90
2008,07,20,06,38,9.90
2008,07,20,06,39,10.00
2008,07,20,06,40,10.10
2008,07,20,06,41,10.10
2008,07,20,06,42,10.30
2008,07,20,06,43,10.40
2008,07,20,06,44,10.60
2008,07,20,06,45,10.70
2008,07,20,06,46,10.80
2008,07,20,06,47,10.90
2008,07,20,06,48,11.00
2008,07,20,06,49,11.10
2008,07,20,06,50,11.20
2008,07,20,06,51,11.30
2008,07,20,06,52,11.40
2008,07,20,06,53,11.40
2008,07,20,06,54,11.40
2008,07,20,06,55,11.60
2008,07,20,06,56,11.60
2008,07,20,06,57,11.60
2008,07,20,06,58,11.60
2008,07,20,06,59,11.60
2008,07,20,07,00,11.70
2008,07,20,07,01,11.70
2008,07,20,07,02,11.70
2008,07,20,07,03,11.80
2008,07,20,07,04,11.80
2008,07,20,07,05,11.80
2008,07,20,07,06,11.80
2008,07,20,07,07,11.80
2008,07,20,07,08,11.80
2008,07,20,07,09,11.80
2008,07,20,07,10,11.80
2008,07,20,07,11,11.80
2008,07,20,07,12,11.80
2008,07,20,07,13,11.80
2008,07,20,07,14,11.90
2008,07,20,07,15,12.00
2008,07,20,07,16,12.00
2008,07,20,07,17,12.00
2008,07,20,07,18,12.10
2008,07,20,07,19,12.10
2008,07,20,07,20,12.20
2008,07,20,07,21,12.20
2008,07,20,07,22,12.30
2008,07,20,07,23,12.30
2008,07,20,07,24,12.40
2008,07,20,07,25,12.50
2008,07,20,07,26,12.50
2008,07,20,07,27,12.50
2008,07,20,07,28,12.50
2008,07,20,07,29,12.60
2008,07,20,07,30,12.60
2008,07,20,07,31,12.60
2008,07,20,07,32,12.70
2008,07,20,07,33,12.70
2008,07,20,07,34,12.70
2008,07,20,07,35,12.80
2008,07,20,07,36,12.80
2008,07,20,07,37,12.80
2008,07,20,07,38,12.90
2008,07,20,07,39,13.00
2008,07,20,07,40,13.00
2008,07,20,07,41,13.10
2008,07,20,07,42,13.10
2008,07,20,07,43,13.20
2008,07,20,07,44,13.30
2008,07,20,07,45,13.30
2008,07,20,07,46,13.30
2008,07,20,07,47,13.30
2008,07,20,07,48,13.30
2008,07,20,07,49,13.30
2008,07,20,07,50,13.40
2008,07,20,07,51,13.40
2008,07,20,07,52,13.50
2008,07,20,07,53,13.50
2008,07,20,07,54,13.60
2008,07,20,07,55,13.60
2008,07,20,07,56,13.70
2008,07,20,07,57,13.90
2008,07,20,07,58,13.90
2008,07,20,07,59,14.00
2008,07,20,08,00,14.20
2008,07,20,08,01,14.20
2008,07,20,08,02,14.20
2008,07,20,08,03,14.30
2008,07,20,08,04,14.30
2008,07,20,08,05,14.40
2008,07,20,08,06,14.50
2008,07,20,08,07,14.50
2008,07,20,08,08,14.60
2008,07,20,08,09,14.60
2008,07,20,08,10,14.60
2008,07,20,08,11,14.60
2008,07,20,08,12,14.70
2008,07,20,08,13,14.70
2008,07,20,08,14,14.70
2008,07,20,08,15,14.80
2008,07,20,08,16,14.80
2008,07,20,08,17,14.80
2008,07,20,08,18,14.80
2008,07,20,08,19,14.90
2008,07,20,08,20,15.00
2008,07,20,08,21,15.10
2008,07,20,08,22,15.20
2008,07,20,08,23,15.40
2008,07,20,08,24,15.50
2008,07,20,08,25,15.50
2008,07,20,08,26,15.50
2008,07,20,08,27,15.50
2008,07,20,08,28,15.50
2008,07,20,08,29,15.50
2008,07,20,08,30,15.50
2008,07,20,08,31,15.50
2008,07,20,08,32,15.50
2008,07,20,08,33,15.50
2008,07,20,08,34,15.60
2008,07,20,08,35,15.60
2008,07,20,08,36,15.60
2008,07,20,08,37,15.70
2008,07,20,08,38,15.80
2008,07,20,08,39,15.80
2008,07,20,08,40,15.80
2008,07,20,08,41,15.80
2008,07,20,08,42,15.80
2008,07,20,08,43,15.80
2008,07,20,08,44,15.90
2008,07,20,08,45,15.90
2008,07,20,08,46,16.10
2008,07,20,08,47,16.10
2008,07,20,08,48,16.20
2008,07,20,08,49,16.20
2008,07,20,08,50,16.30
2008,07,20,08,51,16.30
2008,07,20,08,52,16.40
2008,07,20,08,53,16.40
2008,07,20,08,54,16.40
2008,07,20,08,55,16.40
2008,07,20,08,56,16.50
2008,07,20,08,57,16.40
2008,07,20,08,58,16.40
2008,07,20,08,59,16.40
2008,07,20,09,00,16.40
2008,07,20,09,01,16.40
2008,07,20,09,02,16.40
2008,07,20,09,03,16.40
2008,07,20,09,04,16.40
2008,07,20,09,05,16.40
2008,07,20,09,06,16.40
2008,07,20,09,07,16.40
2008,07,20,09,08,16.30
2008,07,20,09,09,16.30
2008,07,20,09,10,16.40
2008,07,20,09,11,16.40
2008,07,20,09,12,16.40
2008,07,20,09,13,16.40
2008,07,20,09,14,16.40
2008,07,20,09,15,16.40
2008,07,20,09,16,16.40
2008,07,20,09,17,16.30
2008,07,20,09,18,16.30
2008,07,20,09,19,16.30
2008,07,20,09,20,16.30
2008,07,20,09,21,16.30
2008,07,20,09,22,16.40
2008,07,20,09,23,16.40
2008,07,20,09,24,16.40
2008,07,20,09,25,16.40
2008,07,20,09,26,16.50
2008,07,20,09,27,16.60
2008,07,20,09,28,16.60
2008,07,20,09,29,16.70
2008,07,20,09,30,16.70
2008,07,20,09,31,16.70
2008,07,20,09,32,16.70
2008,07,20,09,33,16.80
2008,07,20,09,34,16.90
2008,07,20,09,35,16.90
2008,07,20,09,36,17.00
2008,07,20,09,37,17.10
2008,07,20,09,38,17.20
2008,07,20,09,39,17.10
2008,07,20,09,40,17.10
2008,07,20,09,41,17.00
2008,07,20,09,42,17.00
2008,07,20,09,43,17.00
2008,07,20,09,44,17.00
2008,07,20,09,45,17.00
2008,07,20,09,46,16.90
2008,07,20,09,47,16.90
2008,07,20,09,48,16.90
2008,07,20,09,49,16.90
2008,07,20,09,50,16.90
2008,07,20,09,51,16.90
2008,07,20,09,52,16.80
2008,07,20,09,53,16.90
2008,07,20,09,54,16.90
2008,07,20,09,55,16.90
2008,07,20,09,56,17.00
2008,07,20,09,57,17.10
2008,07,20,09,58,17.20
2008,07,20,09,59,17.20
2008,07,20,10,00,17.30
2008,07,20,10,01,17.30
2008,07,20,10,02,17.20
2008,07,20,10,03,17.20
2008,07,20,10,04,17.20
2008,07,20,10,05,17.20
2008,07,20,10,06,17.30
2008,07,20,10,07,17.30
2008,07,20,10,08,17.30
2008,07,20,10,09,17.30
2008,07,20,10,10,17.40
2008,07,20,10,11,17.40
2008,07,20,10,12,17.50
2008,07,20,10,13,17.50
2008,07,20,10,14,17.60
2008,07,20,10,15,17.70
2008,07,20,10,16,17.80
2008,07,20,10,17,17.80
2008,07,20,10,18,17.70
2008,07,20,10,19,17.60
2008,07,20,10,20,17.70
2008,07,20,10,21,17.70
2008,07,20,10,22,17.80
2008,07,20,10,23,17.80
2008,07,20,10,24,17.80
2008,07,20,10,25,17.70
2008,07,20,10,26,17.70
2008,07,20,10,27,17.70
2008,07,20,10,28,17.70
2008,07,20,10,29,17.70
2008,07,20,10,30,17.80
2008,07,20,10,31,17.80
2008,07,20,10,32,17.90
2008,07,20,10,33,17.90
2008,07,20,10,34,18.10
2008,07,20,10,35,18.10
2008,07,20,10,36,18.10
2008,07,20,10,37,18.10
2008,07,20,10,38,18.20
2008,07,20,10,39,18.20
2008,07,20,10,40,18.20
2008,07,20,10,41,18.20
2008,07,20,10,42,18.20
2008,07,20,10,43,18.20
2008,07,20,10,44,18.20
2008,07,20,10,45,18.20
2008,07,20,10,46,18.20
2008,07,20,10,47,18.20
2008,07,20,10,48,18.30
2008,07,20,10,49,18.30
2008,07,20,10,50,18.30
2008,07,20,10,51,18.30
2008,07,20,10,52,18.30
2008,07,20,10,53,18.30
2008,07,20,10,54,18.30
2008,07,20,10,55,18.30
2008,07,20,10,56,18.40
2008,07,20,10,57,18.50
2008,07,20,10,58,18.50
2008,07,20,10,59,18.50
2008,07,20,11,00,18.50
2008,07,20,11,01,18.50
2008,07,20,11,02,18.40
2008,07,20,11,03,18.50
2008,07,20,11,04,18.50
2008,07,20,11,05,18.50
2008,07,20,11,06,18.40
2008,07,20,11,07,18.40
2008,07,20,11,08,18.30
2008,07,20,11,09,18.30
2008,07,20,11,10,18.30
2008,07,20,11,11,18.50
2008,07,20,11,12,18.60
2008,07,20,11,13,18.60
2008,07,20,11,14,18.70
2008,07,20,11,15,18.70
2008,07,20,11,16,18.80
2008,07,20,11,17,18.80
2008,07,20,11,18,18.70
2008,07,20,11,19,18.60
2008,07,20,11,20,18.50
2008,07,20,11,21,18.60
2008,07,20,11,22,18.60
2008,07,20,11,23,18.60
2008,07,20,11,24,18.70
2008,07,20,11,25,18.70
2008,07,20,11,26,18.80
2008,07,20,11,27,18.80
2008,07,20,11,28,18.90
2008,07,20,11,29,18.90
2008,07,20,11,30,18.80
2008,07,20,11,31,18.80
2008,07,20,11,32,18.70
2008,07,20,11,33,18.70
2008,07,20,11,34,18.70
2008,07,20,11,35,18.70
2008,07,20,11,36,18.70
2008,07,20,11,37,18.70
2008,07,20,11,38,18.70
2008,07,20,11,39,18.80
2008,07,20,11,40,18.80
2008,07,20,11,41,18.90
2008,07,20,11,42,19.00
2008,07,20,11,43,19.10
2008,07,20,11,44,19.10
2008,07,20,11,45,19.10
2008,07,20,11,46,19.10
2008,07,20,11,47,19.20
2008,07,20,11,48,19.10
2008,07,20,11,49,19.10
2008,07,20,11,50,19.10
2008,07,20,11,51,19.10
2008,07,20,11,52,19.10
2008,07,20,11,53,18.90
2008,07,20,11,54,18.90
2008,07,20,11,55,18.90
2008,07,20,11,56,18.90
2008,07,20,11,57,19.00
2008,07,20,11,58,19.10
2008,07,20,11,59,19.10
2008,07,20,12,00,19.10
2008,07,20,12,01,19.10
2008,07,20,12,02,19.10
2008,07,20,12,03,19.10
2008,07,20,12,04,19.10
2008,07,20,12,05,19.10
2008,07,20,12,06,19.10
2008,07,20,12,07,19.10
2008,07,20,12,08,19.10
2008,07,20,12,09,19.10
2008,07,20,12,10,19.10
2008,07,20,12,11,19.10
2008,07,20,12,12,19.20
2008,07,20,12,13,19.30
2008,07,20,12,14,19.40
2008,07,20,12,15,19.40
2008,07,20,12,16,19.50
2008,07,20,12,17,19.50
2008,07,20,12,18,19.50
2008,07,20,12,19,19.50
2008,07,20,12,20,19.50
2008,07,20,12,21,19.50
2008,07,20,12,22,19.50
2008,07,20,12,23,19.60
2008,07,20,12,24,19.60
2008,07,20,12,25,19.60
2008,07,20,12,26,19.60
2008,07,20,12,27,19.80
2008,07,20,12,28,19.90
2008,07,20,12,29,19.90
2008,07,20,12,30,19.90
2008,07,20,12,31,19.90
2008,07,20,12,32,19.90
2008,07,20,12,33,20.10
2008,07,20,12,34,20.20
2008,07,20,12,35,20.30
2008,07,20,12,36,20.30
2008,07,20,12,37,20.40
2008,07,20,12,38,20.50
2008,07,20,12,39,20.60
2008,07,20,12,40,20.70
2008,07,20,12,41,20.70
2008,07,20,12,42,20.80
2008,07,20,12,43,20.80
2008,07,20,12,44,20.90
2008,07,20,12,45,20.90
2008,07,20,12,46,20.90
2008,07,20,12,47,21.10
2008,07,20,12,48,21.20
2008,07,20,12,49,21.30
2008,07,20,12,50,21.30
2008,07,20,12,51,21.30
2008,07,20,12,52,21.30
2008,07,20,12,53,21.30
2008,07,20,12,54,21.20
2008,07,20,12,55,21.20
2008,07,20,12,56,21.20
2008,07,20,12,57,21.10
2008,07,20,12,58,21.00
2008,07,20,12,59,21.00
2008,07,20,13,00,21.10
2008,07,20,13,01,21.20
2008,07,20,13,02,21.10
2008,07,20,13,03,21.00
2008,07,20,13,04,20.90
2008,07,20,13,05,20.90
2008,07,20,13,06,20.90
2008,07,20,13,07,21.00
2008,07,20,13,08,21.00
2008,07,20,13,09,20.90
2008,07,20,13,10,20.90
2008,07,20,13,11,20.90
2008,07,20,13,12,20.90
2008,07,20,13,13,20.90
2008,07,20,13,14,21.00
2008,07,20,13,15,21.00
2008,07,20,13,16,21.00
2008,07,20,13,17,21.00
2008,07,20,13,18,21.20
2008,07,20,13,19,21.30
2008,07,20,13,20,21.30
2008,07,20,13,21,21.30
2008,07,20,13,22,21.30
2008,07,20,13,23,21.30
2008,07,20,13,24,21.30
2008,07,20,13,25,21.30
2008,07,20,13,26,21.30
2008,07,20,13,27,21.30
2008,07,20,13,28,21.30
2008,07,20,13,29,21.30
2008,07,20,13,30,21.30
2008,07,20,13,31,21.30
2008,07,20,13,32,21.30
2008,07,20,13,33,21.40
2008,07,20,13,34,21.40
2008,07,20,13,35,21.40
2008,07,20,13,36,21.50
2008,07,20,13,37,21.50
2008,07,20,13,38,21.50
2008,07,20,13,39,21.60
2008,07,20,13,40,21.70
2008,07,20,13,41,21.80
2008,07,20,13,42,22.00
2008,07,20,13,43,22.00
2008,07,20,13,44,22.10
2008,07,20,13,45,22.00
2008,07,20,13,46,21.90
2008,07,20,13,47,21.80
2008,07,20,13,48,21.60
2008,07,20,13,49,21.60
2008,07,20,13,50,21.60
2008,07,20,13,51,21.60
2008,07,20,13,52,21.60
2008,07,20,13,53,21.60
2008,07,20,13,54,21.70
2008,07,20,13,55,21.60
2008,07,20,13,56,21.60
2008,07,20,13,57,21.70
2008,07,20,13,58,21.70
2008,07,20,13,59,21.70
2008,07,20,14,00,21.60
2008,07,20,14,01,21.70
2008,07,20,14,02,21.80
2008,07,20,14,03,21.90
2008,07,20,14,04,21.90
2008,07,20,14,05,21.90
2008,07,20,14,06,21.90
2008,07,20,14,07,22.00
2008,07,20,14,08,22.10
2008,07,20,14,09,22.20
2008,07,20,14,10,22.30
2008,07,20,14,11,22.30
2008,07,20,14,12,22.40
2008,07,20,14,13,22.40
2008,07,20,14,14,22.40
2008,07,20,14,15,22.40
2008,07,20,14,16,22.30
2008,07,20,14,17,22.30
2008,07,20,14,18,22.40
2008,07,20,14,19,22.40
2008,07,20,14,20,22.40
2008,07,20,14,21,22.30
2008,07,20,14,22,22.30
2008,07,20,14,23,22.20
2008,07,20,14,24,22.10
2008,07,20,14,25,22.00
2008,07,20,14,26,22.00
2008,07,20,14,27,22.10
2008,07,20,14,28,22.10
2008,07,20,14,29,22.10
2008,07,20,14,30,22.20
2008,07,20,14,31,22.20
2008,07,20,14,32,22.20
2008,07,20,14,33,22.20
2008,07,20,14,34,22.20
2008,07,20,14,35,22.20
2008,07,20,14,36,22.20
2008,07,20,14,37,22.30
2008,07,20,14,38,22.50
2008,07,20,14,39,22.50
2008,07,20,14,40,22.50
2008,07,20,14,41,22.50
2008,07,20,14,42,22.50
2008,07,20,14,43,22.60
2008,07,20,14,44,22.70
2008,07,20,14,45,22.90
2008,07,20,14,46,22.90
2008,07,20,14,47,22.90
2008,07,20,14,48,22.90
2008,07,20,14,49,22.90
2008,07,20,14,50,22.90
2008,07,20,14,51,22.90
2008,07,20,14,52,23.10
2008,07,20,14,53,23.10
2008,07,20,14,54,23.20
2008,07,20,14,55,23.20
2008,07,20,14,56,23.30
2008,07,20,14,57,23.30
2008,07,20,14,58,23.30
2008,07,20,14,59,23.30
2008,07,20,15,00,23.30
2008,07,20,15,01,23.30
2008,07,20,15,02,23.30
2008,07,20,15,03,23.30
2008,07,20,15,04,23.40
2008,07,20,15,05,23.50
2008,07,20,15,06,23.60
2008,07,20,15,07,23.60
2008,07,20,15,08,23.60
2008,07,20,15,09,23.60
2008,07,20,15,10,23.60
2008,07,20,15,11,23.70
2008,07,20,15,12,23.70
2008,07,20,15,13,23.70
2008,07,20,15,14,23.70
2008,07,20,15,15,23.70
2008,07,20,15,16,23.70
2008,07,20,15,17,23.70
2008,07,20,15,18,23.70
2008,07,20,15,19,23.80
2008,07,20,15,20,23.80
2008,07,20,15,21,23.80
2008,07,20,15,22,23.80
2008,07,20,15,23,23.90
2008,07,20,15,24,23.90
2008,07,20,15,25,24.00
2008,07,20,15,26,24.20
2008,07,20,15,27,24.50
2008,07,20,15,28,24.70
2008,07,20,15,29,24.80
2008,07,20,15,30,24.90
2008,07,20,15,31,24.90
2008,07,20,15,32,24.90
2008,07,20,15,33,25.00
2008,07,20,15,34,24.90
2008,07,20,15,35,24.90
2008,07,20,15,36,24.80
2008,07,20,15,37,24.70
2008,07,20,15,38,24.70
2008,07,20,15,39,24.60
2008,07,20,15,40,24.60
2008,07,20,15,41,24.60
2008,07,20,15,42,24.70
2008,07,20,15,43,24.70
2008,07,20,15,44,24.70
2008,07,20,15,45,24.70
2008,07,20,15,46,24.70
2008,07,20,15,47,24.80
2008,07,20,15,48,24.80
2008,07,20,15,49,24.90
2008,07,20,15,50,25.00
2008,07,20,15,51,25.10
2008,07,20,15,52,25.20
2008,07,20,15,53,25.30
2008,07,20,15,54,25.30
2008,07,20,15,55,25.20
2008,07,20,15,56,25.20
2008,07,20,15,57,25.10
2008,07,20,15,58,25.00
2008,07,20,15,59,24.90
2008,07,20,16,00,24.80
2008,07,20,16,01,24.70
2008,07,20,16,02,24.70
2008,07,20,16,03,24.70
2008,07,20,16,04,24.70
2008,07,20,16,05,24.70
2008,07,20,16,06,24.70
2008,07,20,16,07,24.80
2008,07,20,16,08,24.90
2008,07,20,16,09,25.00
2008,07,20,16,10,25.10
2008,07,20,16,11,25.10
2008,07,20,16,12,25.10
2008,07,20,16,13,25.00
2008,07,20,16,14,25.00
2008,07,20,16,15,25.00
2008,07,20,16,16,25.00
2008,07,20,16,17,25.00
2008,07,20,16,18,24.90
2008,07,20,16,19,25.00
2008,07,20,16,20,25.00
2008,07,20,16,21,25.00
2008,07,20,16,22,25.00
2008,07,20,16,23,25.00
2008,07,20,16,24,25.00
2008,07,20,16,25,25.10
2008,07,20,16,26,25.10
2008,07,20,16,27,24.90
2008,07,20,16,28,24.90
2008,07,20,16,29,24.90
2008,07,20,16,30,24.80
2008,07,20,16,31,24.70
2008,07,20,16,32,24.60
2008,07,20,16,33,24.60
2008,07,20,16,34,24.60
2008,07,20,16,35,24.60
2008,07,20,16,36,24.60
2008,07,20,16,37,24.50
2008,07,20,16,38,24.50
2008,07,20,16,39,24.50
2008,07,20,16,40,24.50
2008,07,20,16,41,24.50
2008,07,20,16,42,24.50
2008,07,20,16,43,24.50
2008,07,20,16,44,24.60
2008,07,20,16,45,24.50
2008,07,20,16,46,24.50
2008,07,20,16,47,24.50
2008,07,20,16,48,24.50
2008,07,20,16,49,24.50
2008,07,20,16,50,24.40
2008,07,20,16,51,24.30
2008,07,20,16,52,24.30
2008,07,20,16,53,24.30
2008,07,20,16,54,24.30
2008,07,20,16,55,24.20
2008,07,20,16,56,24.20
2008,07,20,16,57,24.10
2008,07,20,16,58,23.90
2008,07,20,16,59,23.80
2008,07,20,17,00,23.80
2008,07,20,17,01,23.90
2008,07,20,17,02,24.00
2008,07,20,17,03,24.10
2008,07,20,17,04,24.10
2008,07,20,17,05,24.10
2008,07,20,17,06,24.10
2008,07,20,17,07,24.10
2008,07,20,17,08,24.20
2008,07,20,17,09,24.20
2008,07,20,17,10,24.10
2008,07,20,17,11,23.90
2008,07,20,17,12,23.80
2008,07,20,17,13,23.80
2008,07,20,17,14,23.70
2008,07,20,17,15,23.70
2008,07,20,17,16,23.70
2008,07,20,17,17,23.70
2008,07,20,17,18,23.70
2008,07,20,17,19,23.70
2008,07,20,17,20,23.80
2008,07,20,17,21,23.90
2008,07,20,17,22,24.00
2008,07,20,17,23,24.10
2008,07,20,17,24,24.10
2008,07,20,17,25,24.00